| time (UTC) | temp C | wind direction | speed KPH | gust KPH | rain 1hr cm | rain 24hr cm | rain mn cm | humidity % | barometer mb |
| 20260906234536 | 14 | 142 | 1.6 | 3.2 | 0.00 | 0.00 | 0.00 | 92 | 1018.9 |
| 20260906233026 | 14 | 142 | 0.0 | 3.2 | 0.00 | 0.00 | 0.00 | 92 | 1019.1 |
| 20260906231524 | 13 | 142 | 0.0 | 3.2 | 0.00 | 0.00 | 0.00 | 92 | 1019.0 |
| 20260906230023 | 13 | 142 | 0.0 | 3.2 | 0.00 | 0.00 | 0.00 | 91 | 1018.8 |
| 20260906224508 | 13 | 142 | 0.0 | 1.6 | 0.00 | 0.00 | 0.00 | 91 | 1018.9 |
| 20260906223002 | 13 | 142 | 3.2 | 4.8 | 0.00 | 0.00 | 0.00 | 91 | 1019.1 |
| 20260906221600 | 13 | 142 | 3.2 | 4.8 | 0.00 | 0.00 | 0.00 | 91 | 1019.2 |
| 20260906220058 | 13 | 142 | 1.6 | 3.2 | 0.00 | 0.00 | 0.00 | 90 | 1019.4 |
| 20260906214556 | 13 | 142 | 3.2 | 4.8 | 0.00 | 0.00 | 0.00 | 90 | 1019.6 |
| 20260906213057 | 13 | 213 | 1.6 | 3.2 | 0.00 | 0.00 | 0.00 | 90 | 1019.7 |
| 20260906211555 | 13 | 213 | 0.0 | 0.0 | 0.00 | 0.00 | 0.00 | 89 | 1019.8 |
| 20260906210056 | 13 | 213 | 0.0 | 0.0 | 0.00 | 0.00 | 0.00 | 88 | 1019.8 |
| 20260906204605 | 13 | 213 | 0.0 | 0.0 | 0.00 | 0.00 | 0.00 | 88 | 1019.9 |
| 20260906203048 | 13 | 213 | 0.0 | 1.6 | 0.00 | 0.00 | 0.00 | 88 | 1019.9 |
| 20260906201559 | 13 | 213 | 0.0 | 0.0 | 0.00 | 0.00 | 0.00 | 86 | 1019.9 |
| 20260906200044 | 14 | 213 | 0.0 | 1.6 | 0.00 | 0.00 | 0.00 | 86 | 1020.0 |
| 20260906193003 | 14 | 214 | 0.0 | 3.2 | 0.00 | 0.00 | 0.00 | 86 | 1020.1 |
| 20260906191504 | 15 | 214 | 0.0 | 3.2 | 0.00 | 0.00 | 0.00 | 85 | 1020.1 |
| 20260906190003 | 15 | 213 | 1.6 | 4.8 | 0.00 | 0.00 | 0.00 | 84 | 1020.2 |
| 20260906184502 | 15 | 213 | 1.6 | 3.2 | 0.00 | 0.00 | 0.00 | 83 | 1020.2 |
| 20260906183001 | 15 | 213 | 0.0 | 1.6 | 0.00 | 0.00 | 0.00 | 82 | 1020.2 |
| 20260906181503 | 16 | 223 | 1.6 | 4.8 | 0.00 | 0.00 | 0.00 | 80 | 1020.3 |
| 20260906180002 | 16 | 223 | 0.0 | 6.4 | 0.00 | 0.00 | 0.00 | 79 | 1020.2 |
| 20260906174607 | 16 | 229 | 3.2 | 6.4 | 0.00 | 0.00 | 0.00 | 76 | 1020.2 |
| 20260906173059 | 17 | 223 | 4.8 | 11.3 | 0.00 | 0.00 | 0.00 | 74 | 1020.3 |
| 20260906171559 | 17 | 211 | 4.8 | 12.9 | 0.00 | 0.00 | 0.00 | 72 | 1020.3 |
| 20260906170100 | 18 | 191 | 6.4 | 14.5 | 0.00 | 0.00 | 0.00 | 71 | 1020.3 |
| 20260906164557 | 18 | 284 | 4.8 | 19.3 | 0.00 | 0.00 | 0.00 | 68 | 1020.4 |
| 20260906163157 | 18 | 207 | 8.0 | 16.1 | 0.00 | 0.00 | 0.00 | 65 | 1020.3 |
| 20260906161601 | 18 | 257 | 6.4 | 16.1 | 0.00 | 0.00 | 0.00 | 68 | 1020.3 |
| 20260906160055 | 18 | 288 | 6.4 | 14.5 | 0.00 | 0.00 | 0.00 | 69 | 1020.3 |
| 20260906154602 | 18 | 273 | 8.0 | 20.9 | 0.00 | 0.00 | 0.00 | 68 | 1020.2 |
| 20260906153057 | 18 | 238 | 3.2 | 17.7 | 0.00 | 0.00 | 0.00 | 70 | 1020.2 |
| 20260906151553 | 18 | 249 | 9.7 | 24.1 | 0.00 | 0.00 | 0.00 | 70 | 1020.2 |
| 20260906144552 | 19 | 226 | 12.9 | 27.4 | 0.00 | 0.00 | 0.00 | 67 | 1020.0 |
| 20260906143057 | 18 | 264 | 8.0 | 25.7 | 0.00 | 0.00 | 0.00 | 68 | 1020.2 |
| 20260906141558 | 18 | 283 | 11.3 | 27.4 | 0.00 | 0.00 | 0.00 | 64 | 1020.1 |
| 20260906140057 | 19 | 281 | 14.5 | 25.7 | 0.00 | 0.00 | 0.00 | 63 | 1020.1 |
| 20260906134547 | 19 | 287 | 14.5 | 24.1 | 0.00 | 0.00 | 0.00 | 65 | 1020.0 |
| 20260906133047 | 19 | 275 | 9.7 | 29.0 | 0.00 | 0.00 | 0.00 | 63 | 1020.3 |
| 20260906131545 | 19 | 274 | 16.1 | 29.0 | 0.00 | 0.00 | 0.00 | 63 | 1020.1 |
| 20260906130053 | 20 | 266 | 14.5 | 25.7 | 0.00 | 0.00 | 0.00 | 61 | 1020.2 |
| 20260906124540 | 19 | 290 | 12.9 | 20.9 | 0.00 | 0.00 | 0.00 | 63 | 1020.3 |
| 20260906123043 | 18 | 259 | 16.1 | 27.4 | 0.00 | 0.00 | 0.00 | 64 | 1020.3 |
| 20260906121538 | 19 | 229 | 17.7 | 33.8 | 0.00 | 0.00 | 0.00 | 64 | 1020.3 |
| 20260906120038 | 19 | 306 | 22.5 | 35.4 | 0.00 | 0.00 | 0.00 | 65 | 1020.2 |
| 20260906114546 | 18 | 242 | 19.3 | 37.0 | 0.00 | 0.05 | 0.00 | 64 | 1020.3 |
| 20260906113036 | 18 | 286 | 16.1 | 33.8 | 0.00 | 0.05 | 0.00 | 63 | 1020.1 |
| 20260906111538 | 19 | 259 | 17.7 | 32.2 | 0.00 | 0.05 | 0.00 | 61 | 1020.0 |
| 20260906110032 | 20 | 281 | 20.9 | 33.8 | 0.00 | 0.05 | 0.00 | 64 | 1019.7 |
| 20260906104540 | 20 | 298 | 22.5 | 33.8 | 0.00 | 0.33 | 0.00 | 60 | 1019.8 |
| 20260906103041 | 18 | 300 | 14.5 | 29.0 | 0.00 | 0.33 | 0.00 | 66 | 1019.7 |
| 20260906101531 | 19 | 296 | 29.0 | 38.6 | 0.00 | 0.33 | 0.00 | 65 | 1019.7 |
| 20260906100027 | 18 | 236 | 20.9 | 29.0 | 0.00 | 0.33 | 0.00 | 65 | 1019.5 |
| 20260906094527 | 19 | 295 | 17.7 | 33.8 | 0.00 | 0.38 | 0.00 | 64 | 1019.4 |
| 20260906093029 | 18 | 312 | 20.9 | 35.4 | 0.00 | 0.38 | 0.00 | 63 | 1019.2 |
| 20260906091522 | 18 | 294 | 25.7 | 32.2 | 0.00 | 0.38 | 0.00 | 64 | 1019.2 |
| 20260906090016 | 17 | 274 | 16.1 | 30.6 | 0.00 | 0.38 | 0.00 | 66 | 1019.1 |
| 20260906084509 | 17 | 251 | 14.5 | 29.0 | 0.00 | 0.38 | 0.00 | 68 | 1019.0 |
| 20260906083006 | 17 | 289 | 20.9 | 32.2 | 0.00 | 0.38 | 0.00 | 68 | 1018.9 |
| 20260906081601 | 17 | 287 | 19.3 | 32.2 | 0.00 | 0.38 | 0.00 | 70 | 1018.8 |
| 20260906080059 | 17 | 292 | 24.1 | 33.8 | 0.00 | 0.38 | 0.00 | 71 | 1018.8 |
| 20260906074554 | 16 | 280 | 19.3 | 32.2 | 0.00 | 0.38 | 0.00 | 72 | 1018.6 |
| 20260906073051 | 16 | 242 | 16.1 | 30.6 | 0.00 | 0.38 | 0.00 | 73 | 1018.4 |
| 20260906071545 | 16 | 298 | 14.5 | 27.4 | 0.00 | 0.38 | 0.00 | 75 | 1018.4 |
| 20260906070041 | 15 | 284 | 11.3 | 25.7 | 0.00 | 0.38 | 0.00 | 76 | 1018.2 |
| 20260906064536 | 15 | 286 | 11.3 | 19.3 | 0.00 | 0.38 | 0.00 | 77 | 1018.0 |
| 20260906063037 | 15 | 266 | 11.3 | 20.9 | 0.00 | 0.38 | 0.00 | 79 | 1018.0 |
| 20260906061529 | 14 | 280 | 12.9 | 24.1 | 0.00 | 0.38 | 0.00 | 81 | 1017.7 |
| 20260906060025 | 13 | 278 | 14.5 | 19.3 | 0.00 | 0.38 | 0.00 | 82 | 1017.5 |
| 20260906054532 | 13 | 283 | 11.3 | 24.1 | 0.00 | 0.38 | 0.00 | 83 | 1017.5 |
| 20260906053018 | 13 | 273 | 11.3 | 24.1 | 0.00 | 0.38 | 0.00 | 84 | 1017.2 |
| 20260906051515 | 13 | 285 | 14.5 | 24.1 | 0.00 | 0.38 | 0.00 | 84 | 1017.1 |
| 20260906050014 | 12 | 292 | 12.9 | 20.9 | 0.00 | 0.38 | 0.00 | 85 | 1017.2 |
| 20260906044507 | 12 | 271 | 12.9 | 25.7 | 0.00 | 0.38 | 0.00 | 85 | 1016.9 |
| 20260906043104 | 12 | 275 | 11.3 | 20.9 | 0.00 | 0.38 | 0.00 | 85 | 1016.7 |
| 20260906041503 | 12 | 249 | 11.3 | 22.5 | 0.00 | 0.38 | 0.00 | 85 | 1016.5 |
| 20260906040104 | 13 | 290 | 14.5 | 22.5 | 0.00 | 0.38 | 0.00 | 84 | 1016.4 |
| 20260906034600 | 13 | 244 | 14.5 | 27.4 | 0.00 | 0.38 | 0.00 | 84 | 1016.4 |
| 20260906034502 | 13 | 272 | 17.7 | 27.4 | 0.00 | 0.38 | 0.00 | 84 | 1016.3 |
| 20260906033108 | 13 | 250 | 14.5 | 25.7 | 0.00 | 0.38 | 0.00 | 84 | 1016.1 |
| 20260906031611 | 13 | 274 | 16.1 | 29.0 | 0.00 | 0.38 | 0.00 | 84 | 1016.0 |
| 20260906030054 | 13 | 302 | 11.3 | 25.7 | 0.00 | 0.38 | 0.00 | 84 | 1015.8 |
| 20260906024600 | 13 | 299 | 16.1 | 25.7 | 0.00 | 0.38 | 0.00 | 84 | 1015.6 |
| 20260906023054 | 13 | 286 | 16.1 | 24.1 | 0.00 | 0.38 | 0.00 | 84 | 1015.4 |
| 20260906021544 | 13 | 277 | 16.1 | 30.6 | 0.00 | 0.38 | 0.00 | 84 | 1015.3 |
| 20260906020043 | 13 | 285 | 16.1 | 24.1 | 0.00 | 0.38 | 0.00 | 83 | 1015.2 |
| 20260906014539 | 13 | 271 | 17.7 | 33.8 | 0.00 | 0.38 | 0.00 | 83 | 1015.1 |
| 20260906013036 | 13 | 279 | 16.1 | 32.2 | 0.00 | 0.38 | 0.00 | 83 | 1014.8 |
| 20260906011534 | 13 | 275 | 14.5 | 27.4 | 0.00 | 0.38 | 0.00 | 83 | 1014.7 |
| 20260906010045 | 13 | 277 | 17.7 | 35.4 | 0.00 | 0.38 | 0.00 | 84 | 1014.7 |
| 20260906004531 | 13 | 279 | 16.1 | 27.4 | 0.00 | 0.41 | 0.00 | 83 | 1014.5 |
| 20260906003028 | 13 | 300 | 19.3 | 33.8 | 0.00 | 0.41 | 0.00 | 83 | 1014.4 |
| 20260906001533 | 13 | 285 | 16.1 | 32.2 | 0.00 | 0.41 | 0.00 | 83 | 1014.2 |
| 20260906000025 | 13 | 298 | 16.1 | 30.6 | 0.00 | 0.41 | 0.00 | 84 | 1014.1 |